星链-1480 (STARLINK-1480 )

导读 | 星芒AI

STARLINK-1480 是 SpaceX Starlink 项目中的一颗低轨通信卫星,旨在为全球用户提供高速互联网服务。该卫星属于 Starlink 群体中的一代卫星,部署在约 550 公里的轨道高度,采用先进的推进系统和激光通信技术,以提升网络效率和减少延迟。作为 Starlink 计划的一部分,STARLINK-1480 有助于扩大覆盖范围,特别是在偏远和网络基础设施不足的地区,推动全球互联网接入的普及。

基本信息
目录编号:
45741
目录名称:
STARLINK-1480
国际标识:
2020-038M
轨道中心:
EARTH
卫星名称:
星链-1480
卫星全名:
星链-1480 (STARLINK-1480 )
卫星状态:
在轨 (已飞行2012 天)
发射日期:
2020-06-13 UTC
国别 :
美国 (US)
星等 :
--
轨道信息
数据来源 国际轨道数据 AOE轨道数据
星历时间 2025-12-15T16:00:02+0800
18小时前
查看轨道信息
2025-12-11T15:00:00+0800
4天前
查看轨道信息
半长轴 6914.314km 6925.305km
偏心率 0.0001703 0.0001106
轨道倾角 53.055° 53.052°
近地点辐角 78.807° 95.998°
升交点赤经 255.242° 273.449°
平近点角 116.871° 96.476°
近地点 535.001km 546.404km
远地点 537.357km 547.936km
周期 95.364分钟 95.591分钟
每日圈数 15.100076 15.064143
详细信息
固有亮度:
5
最大亮度:
2.5
卫星平台:
Starlink V1.0
覆盖范围:
全球
运营商:
太空探索技术公司
运营商所在国:
美国
制造商(研发单位):
太空探索技术公司
制造商所在国:
美国
使用方式:
暂无
卫星简介
星链(Starlink)计划是由太空探索技术公司(SpaceX)提出的一个巨型低轨卫星互联网星座项目,计划在2019年至2024年间在太空搭建由约1.2万颗卫星组成的“星链”网络,其中1584颗将部署在地球上空550千米处的近地轨道,并从2020年开始工作。该卫星仍在工作。
2D轨道图
3D轨道图
轨道高度分析图
轨道倾角分析图
轨道综合分析图
查看轨道综合分析图